Flag for Germany Weather past 2 weeks in Zwickau, Saxony, Germany

Now
36 °F

Rain. Low clouds.


Feels Like: 30 °F
Forecast: 33 / 42 °F
Wind: 8 mph from Southwest

Location: Gera-Leumnitz

Current Time: Apr 2, 2015 at 9:00:37 AM

Latest Report: Apr 2, 2015 at 8:00 AM


Visibility: 15 mi

Pressure: 29.72 "Hg

Humidity: 91%

Dew point: 34 °F

Location of ZwickauLocation

Historic Weather in Zwickau — Graph

°F

Zwickau temperature yesterday

Maximum temperature yesterday: 43 °F (at 3:00 PM)
Minimum temperature yesterday: 32 °F (at 5:00 AM)
Average temperature yesterday: 37 °F

Past Weeks' High & Low Weather Summary

 TemperatureHumidityPressure
High64 °F (Mar 25, 3:00 PM)97% (Mar 22, 1:00 AM)30.35 "Hg (Mar 22, 1:00 AM)
Low25 °F (Mar 23, 5:00 AM)29% (Mar 20, 4:00 PM)29.18 "Hg (Mar 31, 10:00 AM)
Average42 °F74%29.92 "Hg
* Reported Mar 18 6:00 AM — Apr 2 7:00 AM, Zwickau, Weather by CustomWeather, © 2015

Note: Actual official high and low records may vary slightly from our data, if they occured in-between our weather recording intervals... More about our weather records

Advertising

Zwickau weather history for previous 24 hours

 ConditionsComfort  
Time TempWeatherWind HumidityBarometerVisibility
7:00 AM
Thu, Apr 2
36 °FRain. Low clouds.9 mph90%29.74 "Hg19 mi
6:00 AM36 °FLight rain. Overcast.10 mph89%29.77 "Hg22 mi
5:00 AM35 °FPassing clouds.9 mph90%29.81 "Hg9 mi
4:00 AM33 °FFreezing rain. Passing clouds.7 mph96%29.87 "Hg5 mi
3:00 AM33 °FSnow. Low clouds.7 mph96%29.91 "Hg1 mi
2:00 AM35 °FOvercast.6 mph82%29.94 "Hg37 mi
1:00 AM34 °FOvercast.7 mph84%29.98 "Hg25 mi
12:00 AM34 °FPassing clouds.8 mph82%30.00 "Hg28 mi
11:00 PM
Wed, Apr 1
35 °FPassing clouds.8 mph80%29.99 "Hg43 mi
10:00 PM35 °FPassing clouds.8 mph89%29.98 "Hg28 mi
9:00 PM35 °FSnow flurries. Overcast.8 mph87%29.98 "Hg7 mi
8:00 PM36 °FOvercast.12 mph79%29.96 "Hg47 mi
7:00 PM35 °FOvercast.8 mph86%29.95 "Hg37 mi
6:00 PM35 °FLight rain. Low clouds.9 mph89%29.95 "Hg6 mi
5:00 PM36 °FThunderstorms. Low clouds.8 mph89%29.95 "Hg7 mi
4:00 PM42 °FOvercast.13 mph53%29.90 "Hg47 mi
3:00 PM43 °FOvercast.12 mph55%29.89 "Hg47 mi
2:00 PM42 °FOvercast.13 mph60%29.89 "Hg47 mi
1:00 PM39 °FOvercast.12 mph71%29.90 "Hg43 mi
12:00 PM37 °FLight rain. Low clouds.9 mph81%29.88 "Hg11 mi
11:00 AM37 °FOvercast.10 mph71%29.86 "Hg43 mi
10:00 AM36 °FOvercast.12 mph76%29.83 "Hg28 mi
9:00 AM35 °FLight rain. Overcast.12 mph79%29.82 "Hg14 mi
Weather by CustomWeather, © 2015

See weather overviewHow to use our weather pages